Kulusuk, Greenland

4:45 PM -02 on July 26, 2017 (GMT -0200)
Kulusuk

Weather History for BGKK - November, 2012

Change the Weather History Date:

Thursday, November 29, 2012

  Actual Average Record
Temperature  
Mean Temperature 30 °F -  
Max Temperature 33 °F 24 °F 37 °F (2002)
Min Temperature 28 °F 20 °F 10 °F (1999)
Degree Days  
Heating Degree Days 34    
Moisture  
Dew Point 24 °F    
Average Humidity 73    
Maximum Humidity 86    
Minimum Humidity 56    
Precipitation  
Precipitation 0.00 in - - ()
Sea Level Pressure  
Sea Level Pressure 30.11 in    
Wind  
Wind Speed 31 mph ()    
Max Wind Speed 46 mph    
Max Gust Speed 64 mph    
Visibility 4.6 miles    
Events Snow    
Averages and records for this station are not official NWS values.
T = Trace of Precipitation, MM = Missing Value Source: Averaged Metar Reports

Daily Weather History Graph

Daily Weather History Graph

Search for Another Location

Airport or City:

Trip Planner

Search our weather history database for the weather conditions in past years. The results will help you decide how hot, cold, wet, or windy it might be!

Date:

Astronomy

Nov. 29, 2012 Rise Set
Actual Time 9:02 AM -03 1:30 PM -03
Civil Twilight 7:44 AM -03 2:49 PM -03
Nautical Twilight 6:34 AM -03 3:59 PM -03
Astronomical Twilight 5:32 AM -03 5:01 PM -03
Moon 2:21 PM -03 (11/29) 9:47 AM -03 (11/29)
Length of Visible Light 7h 05m
Length of Day
4h 27m
Full, 99% of the Moon is Illuminated
Nov 29
Full
Dec 6
Last Quarter
Dec 13
New
Dec 20
First Quarter
Dec 28
Full

Hourly Weather History & Observations

Time (-03) Temp. Windchill Dew Point Humidity Pressure Visibility Wind Dir Wind Speed Gust Speed Precip Events Conditions
12:00 AM 34 °F - 24 °F 57% 29.87 in - ENE 46.0 mph - -   Mostly Cloudy
12:50 AM 33.8 °F 17.9 °F 24.8 °F 70% 29.89 in - ENE 42.6 mph 61.0 mph N/A   Mostly Cloudy
1:50 AM 33.8 °F 18.1 °F 24.8 °F 70% 29.92 in - ENE 41.4 mph 64.4 mph N/A   Overcast
2:50 AM 33.8 °F 18.5 °F 24.8 °F 70% 29.95 in - ENE 39.1 mph 54.1 mph N/A   Overcast
3:00 AM 33 °F - 23 °F 56% 29.96 in - ENE 40.3 mph - -   Overcast
3:50 AM 33.8 °F 18.3 °F 24.8 °F 70% 29.95 in - ENE 40.3 mph 61.0 mph N/A   Mostly Cloudy
4:50 AM 33.8 °F 18.5 °F 24.8 °F 70% 29.98 in - ENE 39.1 mph 56.4 mph N/A   Mostly Cloudy
5:50 AM 33.8 °F 18.3 °F 24.8 °F 70% 30.01 in - East 40.3 mph 59.8 mph N/A   Mostly Cloudy
6:00 AM 33 °F - 24 °F 57% 30.03 in - East 38.0 mph - -   Scattered Clouds
6:50 AM 32.0 °F 16.0 °F 24.8 °F 75% 30.04 in 6.2 mi East 39.1 mph 52.9 mph N/A   Mostly Cloudy
7:50 AM 33.8 °F 18.8 °F 24.8 °F 70% 30.06 in 6.2 mi East 36.8 mph 51.8 mph N/A   Mostly Cloudy
8:50 AM 32.0 °F 16.7 °F 23.0 °F 69% 30.09 in 6.2 mi East 34.5 mph 50.6 mph N/A   Mostly Cloudy
9:00 AM 32 °F - 23 °F 59% 30.12 in - ENE 33.4 mph - -   Mostly Cloudy
9:50 AM 32.0 °F 17.4 °F 24.8 °F 75% 30.12 in 6.2 mi East 31.1 mph - N/A   Mostly Cloudy
10:50 AM 32.0 °F 17.6 °F 24.8 °F 75% 30.12 in 6.2 mi ENE 29.9 mph 42.6 mph N/A   Mostly Cloudy
11:50 AM 32.0 °F 18.4 °F 24.8 °F 75% 30.12 in 6.2 mi ENE 26.5 mph - N/A   Mostly Cloudy
12:00 PM 31 °F - 23 °F 64% 30.16 in - East 25.3 mph - -   Overcast
12:50 PM 30.2 °F 16.5 °F 24.8 °F 80% 30.15 in 6.2 mi East 24.2 mph - N/A Snow Light Snow Grains
1:50 PM 30.2 °F 15.7 °F 24.8 °F 80% 30.15 in 6.2 mi East 27.6 mph - N/A Snow Light Snow Grains
2:50 PM 30.2 °F 15.9 °F 24.8 °F 80% 30.15 in 4.3 mi East 26.5 mph 39.1 mph N/A Snow Snow Grains
3:00 PM 29 °F - 24 °F 75% 30.19 in - East 26.5 mph - -   Overcast
3:50 PM 30.2 °F 17.4 °F 24.8 °F 80% 30.18 in 4.3 mi East 20.7 mph - N/A Snow Snow
4:50 PM 28.4 °F 15.1 °F 24.8 °F 86% 30.21 in 1.6 mi ENE 20.7 mph - N/A Snow Snow
5:50 PM 28.4 °F 14.7 °F 24.8 °F 86% 30.21 in 2.5 mi ENE 21.9 mph - N/A Snow Snow
6:00 PM 29 °F - 24 °F 72% 30.24 in - ENE 24.2 mph - -   Overcast
6:50 PM 30.2 °F 15.9 °F 23.0 °F 75% 30.21 in 2.5 mi ENE 26.5 mph 38.0 mph N/A Snow Snow
7:50 PM 30.2 °F 17.4 °F 24.8 °F 80% 30.24 in 3.7 mi ENE 20.7 mph - N/A Snow Light Snow
8:50 PM 30.2 °F 16.8 °F 24.8 °F 80% 30.24 in 4.3 mi ENE 23.0 mph - N/A Snow Light Snow
9:00 PM 31 °F - 23 °F 63% 30.25 in - ENE 21.9 mph - -   Mostly Cloudy
9:50 PM 30.2 °F 16.8 °F 24.8 °F 80% 30.24 in 3.7 mi ENE 23.0 mph 39.1 mph N/A Snow Light Snow
10:50 PM 30.2 °F 17.8 °F 26.6 °F 86% 30.24 in 3.1 mi ENE 19.6 mph - N/A Snow Snow
11:50 PM 30.2 °F 15.7 °F 24.8 °F 80% 30.24 in 2.5 mi ENE 27.6 mph 39.1 mph N/A Snow Snow